1998-067PQ

Last updated on Mon Oct 22 2018 00:00:45 GMT+0000 (Coordinated Universal Time)

1 43640U 98067PQ 18294.43702190 .00005368 00000-0 86419-4 0 9991 2 43640 51.6398 109.4874 0005165 273.0415 86.7013 15.54723538 2306
UTC large
Height (km)
Speed (km/s)
/
Latitude / Longitude
Inclination (degrees)
Orbital Period (minutes)
Azimuth
Elevation
Range (km)
Doppler Factor

Next 0 passes for location: London (51.5072 / 0.1276)

Sorry there are no passes over London.